Location: UMBC
(39.2555°N, 76.7093°W)
Time: 19:24:07
(UTC+02:00)

Amateur Radio Satellites - All Passes

Search period start: 24 April 2014 18:54
Search period end: 25 April 2014 18:54
Location: UMBC, 39.2555°N, 76.7093°W

Satellite Date Start Highest point End Downlink Frequencies (MHz)
Time Altitude Azimuth
FUNcube-1 24 Apr 18:54:53 18:57:40 17° 293° (WNW) 19:00:28 145.950 - 145.970 MHz USB
AO-27 24 Apr 19:13:46 19:17:18 19° 63° (ENE) 19:20:49 436.795 MHz FM
Oscar 19 24 Apr 19:14:18 19:18:54 34° 69° (ENE) 19:23:31 437.125 CW, 437.150 USB
KITSAT 1 24 Apr 19:18:10 19:24:13 24° 256° (WSW) 19:30:14 435.175 FM
ISS 24 Apr 19:21:55 19:25:05 44° 136° (SE) 19:28:17 145.800 FM
ITAMSAT 1 24 Apr 19:22:35 19:26:29 22° 65° (ENE) 19:30:23 435.822 SSB
Oscar 16 24 Apr 19:23:14 19:28:06 44° 71° (ENE) 19:33:00 437.025 USB, Beacon 2401.1428
SO-50 24 Apr 20:04:24 20:08:29 36° 115° (ESE) 20:12:36 436.795 FM
Uribyol 2 24 Apr 20:08:09 20:13:14 62° 73° (ENE) 20:18:20 436.500 FM
AO-Echo 24 Apr 20:12:17 20:17:18 51° 73° (ENE) 20:22:11 ?
TMSAT-1 24 Apr 20:21:19 20:24:46 18° 63° (ENE) 20:28:15 436.925 FM
RS-15 24 Apr 20:21:54 20:32:11 43° 45° (NE) 20:42:39 29.354 - 29.394 USB, Beacon 29.352 USB
AO-27 24 Apr 20:51:19 20:56:23 53° 260° (W) 21:01:27 436.795 MHz FM
Oscar 19 24 Apr 20:53:54 20:58:14 27° 265° (W) 21:02:37 437.125 CW, 437.150 USB
ISS 24 Apr 20:59:08 21:01:56 24° 334° (NNW) 21:04:45 145.800 FM
ITAMSAT 1 24 Apr 21:00:45 21:05:40 44° 261° (W) 21:10:36 435.822 SSB
JAS-1B 24 Apr 21:03:47 21:10:12 31° 67° (ENE) 21:15:47 435.800 - 435.900 CW/SSB
Oscar 16 24 Apr 21:03:51 21:07:38 21° 267° (W) 21:11:28 437.025 USB, Beacon 2401.1428
Gurwin Techsat 1B 24 Apr 21:14:13 21:19:31 77° 75° (ENE) 21:24:50 435.225 FM
AO-7 24 Apr 21:37:04 21:44:25 38° 61° (ENE) 21:51:47 29.400 - 29.500 MHz
SO-50 24 Apr 21:45:24 21:49:07 25° 312° (NW) 21:52:52 436.795 FM
OPAL 24 Apr 21:47:23 21:52:33 57° 103° (ESE) 21:57:39 ?
Uribyol 2 24 Apr 21:50:20 21:53:07 15° 269° (W) 21:55:55 436.500 FM
AO-Echo 24 Apr 21:52:50 21:56:17 18° 267° (W) 21:59:43 ?
UOSAT-12 24 Apr 21:56:46 22:00:36 28° 112° (ESE) 22:04:31 437.025 FM, 437.400 FM
TMSAT-1 24 Apr 21:59:01 22:04:13 58° 259° (W) 22:09:26 436.925 FM
Uosat F 24 Apr 22:14:05 22:19:05 75° 74° (ENE) 22:24:06 435.120 FM
RS-15 24 Apr 22:34:17 22:44:53 58° 247° (WSW) 22:55:49 29.354 - 29.394 USB, Beacon 29.352 USB
ISS 24 Apr 22:38:50 22:39:36 11° 353° (N) 22:40:21 145.800 FM
JAS-1B 24 Apr 22:53:11 23:00:40 46° 260° (W) 23:07:02 435.800 - 435.900 CW/SSB
Gurwin Techsat 1B 24 Apr 22:58:05 23:00:02 12° 271° (W) 23:02:00 435.225 FM
OPAL 24 Apr 23:27:26 23:30:57 19° 299° (WNW) 23:34:27 ?
AO-7 24 Apr 23:29:03 23:36:58 49° 259° (W) 23:44:56 29.400 - 29.500 MHz
UOSAT-12 24 Apr 23:36:31 23:40:38 33° 310° (NW) 23:44:51 437.025 FM, 437.400 FM
Uosat F 24 Apr 23:56:47 23:58:23 11° 270° (W) 23:59:59 435.120 FM
ISS 25 Apr 00:15:52 00:17:31 13° 14° (NNE) 00:19:09 145.800 FM
Hamsat 25 Apr 00:35:36 00:39:49 88° 77° (ENE) 00:44:06 145.90 MHz
STRAND 1 25 Apr 00:36:26 00:39:00 14° 91° (E) 00:41:34 ?
Saudisat 1A 25 Apr 00:45:39 00:50:00 54° 55° (NE) 00:54:16 436.775 MHz
JAS-2 25 Apr 01:20:01 01:25:41 80° 75° (ENE) 01:30:57 435.800 - 435.900 CW/SSB, 435.910 FM
SO-67 25 Apr 01:24:14 01:27:38 52° 76° (ENE) 01:31:03 435.3500 MHz FM
HO-68 25 Apr 01:43:58 01:48:18 18° 55° (NE) 01:52:39 435.675 MHz FM
ISS 25 Apr 01:51:40 01:54:54 44° 33° (NNE) 01:58:08 145.800 FM
STRAND 1 25 Apr 02:13:34 02:18:37 64° 287° (WNW) 02:23:39 ?
Saudisat 1A 25 Apr 02:26:44 02:29:07 15° 251° (WSW) 02:31:30 436.775 MHz
MaSat-1 25 Apr 02:55:23 02:58:08 54° 295° (WNW) 03:00:39 437.345 MHz
JAS-2 25 Apr 03:10:01 03:11:18 11° 269° (W) 03:12:33 435.800 - 435.900 CW/SSB, 435.910 FM
HO-68 25 Apr 03:27:53 03:35:02 90° 74° (ENE) 03:42:14 435.675 MHz FM
ISS 25 Apr 03:28:56 03:31:24 19° 229° (SW) 03:33:51 145.800 FM
Oscar 11 25 Apr 04:05:35 04:09:53 81° 77° (ENE) 04:14:13 145.825 FM, Beacon 2401.500 USB
FUNcube-1 25 Apr 04:13:37 04:17:12 29° 70° (ENE) 04:20:48 145.950 - 145.970 MHz USB
PCSat 25 Apr 04:36:19 04:40:06 20° 105° (ESE) 04:43:54 145.825 MHz
SO-50 25 Apr 04:36:53 04:40:53 28° 49° (NE) 04:44:55 436.795 FM
HO-68 25 Apr 05:19:55 05:23:34 15° 270° (W) 05:27:15 435.675 MHz FM
Sapphire 25 Apr 05:33:23 05:38:41 60° 114° (ESE) 05:44:01 437.095 MHz 1200 baud AX-25 AFSK
FUNcube-1 25 Apr 05:50:28 05:53:38 21° 265° (W) 05:56:48 145.950 - 145.970 MHz USB
SO-50 25 Apr 06:17:15 06:21:30 35° 245° (WSW) 06:25:47 436.795 FM
PCSat 25 Apr 06:17:47 06:23:03 54° 302° (WNW) 06:28:23 145.825 MHz
UOSAT-12 25 Apr 06:27:08 06:30:48 22° 46° (NE) 06:34:26 437.025 FM, 437.400 FM
Sapphire 25 Apr 07:18:29 07:22:31 21° 312° (NW) 07:26:35 437.095 MHz 1200 baud AX-25 AFSK
OPAL 25 Apr 07:26:45 07:28:19 11° 57° (ENE) 07:29:53 ?
Oscar 19 25 Apr 07:28:41 07:30:56 13° 90° (E) 07:33:11 437.125 CW, 437.150 USB
Oscar 16 25 Apr 07:37:06 07:40:28 17° 92° (E) 07:43:49 437.025 USB, Beacon 2401.1428
KITSAT 1 25 Apr 07:48:07 07:56:00 58° 113° (ESE) 08:03:54 435.175 FM
UOSAT-12 25 Apr 08:06:39 08:11:13 49° 243° (WSW) 08:15:42 437.025 FM, 437.400 FM
AO-Echo 25 Apr 08:22:03 08:24:57 16° 92° (E) 08:27:50 ?
Uribyol 2 25 Apr 08:22:37 08:26:47 24° 95° (E) 08:30:55 436.500 FM
OPAL 25 Apr 09:01:20 09:06:23 89° 75° (ENE) 09:11:33 ?
AO-27 25 Apr 09:05:18 09:10:26 60° 101° (ESE) 09:15:32 436.795 MHz FM
Oscar 19 25 Apr 09:05:35 09:10:46 71° 286° (WNW) 09:15:56 437.125 CW, 437.150 USB
ITAMSAT 1 25 Apr 09:14:22 09:19:33 73° 103° (ESE) 09:24:43 435.822 SSB
Oscar 16 25 Apr 09:15:03 09:20:07 54° 288° (WNW) 09:25:10 437.025 USB, Beacon 2401.1428
Gurwin Techsat 1B 25 Apr 09:31:54 09:36:41 33° 97° (E) 09:41:26 435.225 FM
KITSAT 1 25 Apr 09:44:30 09:51:46 35° 313° (NW) 09:59:04 435.175 FM
AO-Echo 25 Apr 09:59:28 10:04:00 47° 288° (WNW) 10:08:29 ?
Uribyol 2 25 Apr 10:01:33 10:06:20 39° 290° (WNW) 10:11:07 436.500 FM
TMSAT-1 25 Apr 10:15:51 10:21:07 63° 101° (E) 10:26:20 436.925 FM
Uosat F 25 Apr 10:23:34 10:27:37 24° 95° (E) 10:31:39 435.120 FM
JAS-1B 25 Apr 10:38:21 10:43:53 48° 101° (E) 10:49:52 435.800 - 435.900 CW/SSB
AO-27 25 Apr 10:46:14 10:49:26 17° 298° (WNW) 10:52:38 436.795 MHz FM
RS-15 25 Apr 10:46:37 10:55:14 26° 103° (ESE) 11:03:35 29.354 - 29.394 USB, Beacon 29.352 USB
ITAMSAT 1 25 Apr 10:55:47 10:58:25 14° 299° (WNW) 11:01:02 435.822 SSB
Gurwin Techsat 1B 25 Apr 11:12:00 11:16:32 29° 293° (WNW) 11:21:03 435.225 FM
MaSat-1 25 Apr 11:19:11 11:21:19 17° 60° (ENE) 11:23:41 437.345 MHz
AO-7 25 Apr 11:31:12 11:39:28 63° 104° (ESE) 11:47:41 29.400 - 29.500 MHz
KITSAT 1 25 Apr 11:47:55 11:50:08 11° 340° (NNW) 11:52:22 435.175 FM
STRAND 1 25 Apr 11:51:11 11:54:47 20° 64° (ENE) 11:58:23 ?
TMSAT-1 25 Apr 11:57:14 12:00:29 17° 298° (WNW) 12:03:44 436.925 FM
Uosat F 25 Apr 12:01:55 12:06:28 36° 291° (WNW) 12:10:59 435.120 FM
PANSAT 25 Apr 12:12:27 12:13:59 12° 167° (SSE) 12:15:32 not established
Hamsat 25 Apr 12:23:36 12:26:32 18° 93° (E) 12:29:28 145.90 MHz
AO-40 25 Apr 12:27:38 15:50:22 26° 136° (SE) 17:18:06 Beacon 2401.320
JAS-1B 25 Apr 12:30:04 12:34:18 22° 296° (WNW) 12:38:43 435.800 - 435.900 CW/SSB
RS-15 25 Apr 12:55:01 13:06:23 80° 302° (WNW) 13:17:25 29.354 - 29.394 USB, Beacon 29.352 USB
MaSat-1 25 Apr 12:56:48 12:59:36 26° 249° (WSW) 13:02:50 437.345 MHz
PCSat 25 Apr 13:24:40 13:27:57 16° 44° (NE) 13:31:12 145.825 MHz
AO-7 25 Apr 13:24:49 13:31:41 30° 302° (WNW) 13:38:33 29.400 - 29.500 MHz
STRAND 1 25 Apr 13:28:40 13:33:35 49° 260° (W) 13:38:33 ?
PANSAT 25 Apr 13:51:00 13:53:31 17° 180° (S) 13:56:02 not established
Hamsat 25 Apr 13:58:35 14:02:39 38° 288° (WNW) 14:06:42 145.90 MHz
JAS-2 25 Apr 14:13:28 14:19:07 78° 103° (ESE) 14:25:27 435.800 - 435.900 CW/SSB, 435.910 FM
Sapphire 25 Apr 14:22:32 14:27:37 39° 55° (NE) 14:32:39 437.095 MHz 1200 baud AX-25 AFSK
SO-67 25 Apr 14:22:40 14:26:11 79° 101° (ESE) 14:29:40 435.3500 MHz FM
Saudisat 1A 25 Apr 14:52:34 14:55:37 18° 110° (ESE) 14:58:39 436.775 MHz
HO-68 25 Apr 14:58:34 15:03:05 17° 91° (E) 15:07:34 435.675 MHz FM
PCSat 25 Apr 15:06:38 15:12:05 86° 243° (WSW) 15:17:29 145.825 MHz
RS-15 25 Apr 15:11:47 15:20:44 27° 329° (NNW) 15:29:35 29.354 - 29.394 USB, Beacon 29.352 USB
PANSAT 25 Apr 15:31:25 15:33:03 12° 193° (SSW) 15:34:42 not established
KITSAT 1 25 Apr 15:42:50 15:49:24 26° 41° (NE) 15:55:55 435.175 FM
Oscar 11 25 Apr 15:55:36 15:58:19 16° 93° (E) 16:01:02 145.825 FM, Beacon 2401.500 USB
JAS-2 25 Apr 16:00:40 16:03:42 15° 298° (WNW) 16:06:53 435.800 - 435.900 CW/SSB, 435.910 FM
Sapphire 25 Apr 16:06:17 16:10:51 28° 252° (WSW) 16:15:23 437.095 MHz 1200 baud AX-25 AFSK
Saudisat 1A 25 Apr 16:30:35 16:34:52 45° 306° (NW) 16:39:10 436.775 MHz
HO-68 25 Apr 16:44:16 16:51:28 80° 288° (WNW) 16:58:38 435.675 MHz FM
Oscar 11 25 Apr 17:30:35 17:34:42 42° 288° (WNW) 17:38:48 145.825 FM, Beacon 2401.500 USB
RS-15 25 Apr 17:31:58 17:38:35 17° 5° (N) 17:45:12 29.354 - 29.394 USB, Beacon 29.352 USB
KITSAT 1 25 Apr 17:37:36 17:45:43 82° 243° (WSW) 17:53:46 435.175 FM
FUNcube-1 25 Apr 17:39:12 17:43:33 76° 102° (ESE) 17:47:58 145.950 - 145.970 MHz USB
ISS 25 Apr 18:33:40 18:36:23 24° 133° (SE) 18:39:08 145.800 FM
HO-68 25 Apr 18:34:14 18:38:03 15° 306° (NW) 18:41:51 435.675 MHz FM
Oscar 19 25 Apr 18:44:16 18:47:41 18° 63° (ENE) 18:51:07 437.125 CW, 437.150 USB
AO-27 25 Apr 18:48:31 18:48:57 10° 58° (ENE) 18:49:22 436.795 MHz FM
